Iron Mountain, MI

6:14 PM CDT on September 24, 2016 (GMT -0500)
Ford

Weather History for KIMT - March, 2013

Change the Weather History Date:

Wednesday, March 20, 2013

  Actual Average Record
Temperature  
Mean Temperature 15 °F -  
Max Temperature 21 °F 40 °F 80 °F (2012)
Min Temperature 9 °F 19 °F -8 °F (1965)
Degree Days  
Heating Degree Days 50    
Moisture  
Dew Point 7 °F    
Average Humidity 67    
Maximum Humidity 79    
Minimum Humidity 57    
Precipitation  
Precipitation 0.00 in - - ()
Sea Level Pressure  
Sea Level Pressure 29.91 in    
Wind  
Wind Speed 13 mph (WNW)    
Max Wind Speed 23 mph    
Max Gust Speed 29 mph    
Visibility 10 miles    
Events Snow    
Averages and records for this station are not official NWS values.
T = Trace of Precipitation, MM = Missing Value Source: NWS Daily Summary

Daily Weather History Graph

Daily Weather History Graph

Search for Another Location

Airport or City:

Trip Planner

Search our weather history database for the weather conditions in past years. The results will help you decide how hot, cold, wet, or windy it might be!

Date:

Astronomy

Mar. 20, 2013 Rise Set
Actual Time 6:55 AM CDT 7:05 PM CDT
Civil Twilight 6:25 AM CDT 7:35 PM CDT
Nautical Twilight 5:50 AM CDT 8:10 PM CDT
Astronomical Twilight 5:14 AM CDT 8:46 PM CDT
Moon 12:23 PM CDT (3/20) 2:51 AM CDT (3/20)
Length of Visible Light 13h 09m
Length of Day
12h 10m
First Quarter, 59% of the Moon is Illuminated
Mar 20
First Quarter
Mar 27
Full
Apr 2
Last Quarter
Apr 10
New
Apr 18
First Quarter

Hourly Weather History & Observations

Time (CDT) Temp. Windchill Dew Point Humidity Pressure Visibility Wind Dir Wind Speed Gust Speed Precip Events Conditions
12:29 AM 17.6 °F 5.0 °F 8.6 °F 68% 29.81 in 10.0 mi WNW 11.5 mph 24.2 mph 0.00 in   Scattered Clouds
12:54 AM 17.1 °F 1.5 °F 9.0 °F 71% 29.87 in 10.0 mi WNW 17.3 mph 27.6 mph 0.00 in   Partly Cloudy
1:46 AM 15.8 °F 2.7 °F 10.4 °F 79% 29.81 in 10.0 mi WNW 11.5 mph - N/A   Mostly Cloudy
1:54 AM 16.0 °F 4.4 °F 10.0 °F 77% 29.88 in 10.0 mi WNW 9.2 mph - N/A   Overcast
2:54 AM 15.1 °F 3.3 °F 9.0 °F 77% 29.88 in 10.0 mi West 9.2 mph - N/A   Mostly Cloudy
3:54 AM 14.0 °F 2.0 °F 8.1 °F 77% 29.88 in 10.0 mi West 9.2 mph - N/A   Mostly Cloudy
4:42 AM 12.2 °F -1.0 °F 6.8 °F 79% 29.81 in 10.0 mi West 10.4 mph - N/A   Scattered Clouds
4:54 AM 12.9 °F -2.8 °F 5.0 °F 71% 29.88 in 10.0 mi West 15.0 mph 20.7 mph N/A   Clear
5:54 AM 10.9 °F -3.4 °F 3.0 °F 70% 29.90 in 10.0 mi WNW 11.5 mph - N/A   Clear
6:54 AM 10.0 °F -4.5 °F 1.9 °F 70% 29.91 in 10.0 mi West 11.5 mph - N/A   Mostly Cloudy
7:54 AM 9.0 °F -3.2 °F 1.0 °F 70% 29.91 in 10.0 mi WNW 8.1 mph - N/A   Partly Cloudy
8:09 AM 10.4 °F -5.4 °F 1.4 °F 67% 29.84 in 10.0 mi WNW 13.8 mph - N/A   Mostly Cloudy
8:33 AM 10.4 °F -4.1 °F 1.4 °F 67% 29.84 in 10.0 mi West 11.5 mph 21.9 mph N/A   Overcast
8:54 AM 12.0 °F -3.4 °F 1.9 °F 64% 29.91 in 10.0 mi WNW 13.8 mph 18.4 mph N/A   Partly Cloudy
9:43 AM 14.0 °F -0.8 °F 3.2 °F 62% 29.84 in 10.0 mi WNW 13.8 mph 20.7 mph N/A   Mostly Cloudy
9:54 AM 15.1 °F 2.5 °F 3.9 °F 61% 29.91 in 10.0 mi WNW 10.4 mph 18.4 mph N/A   Overcast
10:18 AM 15.8 °F 1.4 °F 3.2 °F 58% 29.84 in 10.0 mi NW 13.8 mph 21.9 mph N/A   Overcast
10:54 AM 17.1 °F 3.0 °F 5.0 °F 59% 29.91 in 10.0 mi NW 13.8 mph 24.2 mph N/A   Overcast
11:54 AM 18.0 °F 4.8 °F 9.0 °F 68% 29.92 in 6.0 mi NW 12.7 mph 23.0 mph 0.00 in Snow Light Snow
12:54 PM 19.9 °F 6.7 °F 7.0 °F 57% 29.92 in 9.0 mi NW 13.8 mph 20.7 mph 0.00 in   Overcast
1:54 PM 19.9 °F 5.7 °F 9.0 °F 62% 29.92 in 10.0 mi NW 16.1 mph - 0.00 in   Overcast
2:54 PM 21.0 °F 6.2 °F 8.1 °F 57% 29.92 in 8.0 mi NNW 18.4 mph 25.3 mph 0.00 in Snow Light Snow
3:54 PM 21.0 °F 5.4 °F 9.0 °F 60% 29.93 in 9.0 mi WNW 20.7 mph 25.3 mph 0.00 in Snow Light Snow
4:54 PM 21.0 °F 4.6 °F 8.1 °F 57% 29.94 in 10.0 mi NW 23.0 mph 28.8 mph 0.00 in   Overcast
5:54 PM 19.9 °F 5.7 °F 8.1 °F 60% 29.96 in 10.0 mi NNW 16.1 mph - N/A   Overcast
6:54 PM 19.0 °F 4.0 °F 8.1 °F 62% 29.99 in 10.0 mi NW 17.3 mph 24.2 mph N/A   Overcast
7:14 PM 19.4 °F 7.2 °F 8.6 °F 63% 29.92 in 10.0 mi NNW 11.5 mph - N/A   Overcast
7:43 PM 17.6 °F 3.2 °F 6.8 °F 63% 29.93 in 10.0 mi NNW 15.0 mph 23.0 mph N/A   Overcast
7:54 PM 18.0 °F 4.2 °F 7.0 °F 62% 30.01 in 10.0 mi NNW 13.8 mph 23.0 mph N/A   Overcast
8:54 PM 18.0 °F 4.2 °F 8.1 °F 65% 30.00 in 10.0 mi NW 13.8 mph 25.3 mph N/A   Overcast
9:54 PM 17.1 °F 5.0 °F 7.0 °F 65% 29.99 in 10.0 mi WNW 10.4 mph - N/A   Mostly Cloudy
10:31 PM 15.8 °F 3.4 °F 8.6 °F 73% 29.92 in 10.0 mi WNW 10.4 mph - N/A   Overcast
10:54 PM 16.0 °F 5.3 °F 8.1 °F 71% 29.98 in 10.0 mi WNW 8.1 mph - N/A   Overcast
11:21 PM 15.8 °F 3.4 °F 8.6 °F 73% 29.91 in 10.0 mi WNW 10.4 mph - N/A   Scattered Clouds
11:54 PM 15.1 °F 4.2 °F 8.1 °F 74% 29.98 in 10.0 mi NW 8.1 mph - N/A   Partly Cloudy